Regional Weather Roundup
Issued by NWS Upton, NY

Current Version | Previous Version | Text Only | Print | Product List | Glossary On
Versions: 1 2 3 4 5 6 7 8 9 10 11 12 13 14 15 16 17 18 19 20 21 22 23 24 25 26 27 28 29 30 31 32 33 34 35 36 37 38 39 40 41 42 43 44 45 46 47 48 49 50
862 ASUS41 KOKX 051504 RWROKX REGIONAL WEATHER ROUNDUP NATIONAL WEATHER SERVICE NEW YORK NY 1100 AM EDT THU MAY 05 2016 NOTE: "FAIR" INDICATES FEW OR NO CLOUDS BELOW 12,000 FEET WITH NO SIGNIFICANT WEATHER AND/OR OBSTRUCTIONS TO VISIBILITY. NYZ071-072-176-178-NJZ106-104-051600- NEW YORK CITY METRO AREA CITY SKY/WX TMP DP RH WIND PRES REMARKS CENTRAL PARK CLOUDY 51 41 68 VRB7 29.73S LAGUARDIA APRT CLOUDY 51 44 77 NE15 29.70F KENNEDY INTL CLOUDY 50 42 74 NE17G24 29.71S NEWARK/LIBERTY CLOUDY 51 43 74 NE13 29.71S BRNX BOT. GARD N/A 50 41 71 E6 29.73R TETERBORO CLOUDY 52 41 66 NE7 29.70S $$ NYZ177-179-078>081-051600- LONG ISLAND NEW YORK CITY SKY/WX TMP DP RH WIND PRES REMARKS FARMINGDALE CLOUDY 49 41 74 NE18G25 29.70S ISLIP CLOUDY 50 41 71 NE18G25 29.69S SHIRLEY CLOUDY 49 42 77 N10G22 29.69F RIVERHEAD N/A 48 45 87 E3 29.70R WESTHAMPTON CLOUDY 45 42 89 N16G23 29.70S EAST HAMPTON CLOUDY 47 42 81 NE10G23 29.68F MONTAUK POINT N/A 48 43 82 NE12G23 29.70S $$ NYZ052-065-067-051600- HUDSON VALLEY CITY SKY/WX TMP DP RH WIND PRES REMARKS WHITE PLAINS PTSUNNY 51 42 71 NE8 29.70S NEWBURGH CLOUDY 52 45 76 NE12 29.73F MONTGOMERY CLOUDY 52 44 74 NE16 29.72F POUGHKEEPSIE CLOUDY 54 43 66 N10 29.73F ALBANY CLOUDY 53 43 68 N10 29.79S $$ NJZ001-105-106-008-010-013-015-019>022-104-051600- NEW JERSEY CITY SKY/WX TMP DP RH WIND PRES REMARKS NEWARK/LIBERTY CLOUDY 51 43 74 NE13 29.71S TETERBORO CLOUDY 52 41 66 NE7 29.70S CALDWELL CLOUDY 53 30 41 NE12 29.71F MORRISTOWN CLOUDY 50 43 76 NE13 29.71F SOMERVILLE CLOUDY 54 43 66 NE8 29.68F SUSSEX CLOUDY 51 43 74 NE9 29.72F ANDOVER N/A 49 43 80 NE10G16 29.71F TRENTON CLOUDY 51 45 79 NE9 29.69F MILLVILLE CLOUDY 50 45 83 NE8 29.67S ATLANTIC CITY CLOUDY 49 46 90 N10 29.67F FOG WRIGHTSTOWN CLOUDY 49 46 91 NE10 29.67S TOMS RIVER CLOUDY 48 43 81 NE14 29.69F BELMAR CLOUDY 48 43 82 N14 29.70S $$ PAZ047>061-062-071-051600- EASTERN PENNSYLVANIA CITY SKY/WX TMP DP RH WIND PRES REMARKS PHILADELPHIA CLOUDY 53 43 68 NE13 29.69S ALLENTOWN CLOUDY 53 43 68 NE12 29.71S SCRANTON CLOUDY 52 42 69 NE8 29.71F $$ CTZ002-004>006-009-010-012-RIZ004-006-007-MAZ004-011-015-051600- SOUTHERN NEW ENGLAND IN CT CITY SKY/WX TMP DP RH WIND PRES REMARKS BRADLEY INTL CLOUDY 51 42 71 N12 29.73F HARTFORD CLOUDY 51 41 68 N15G24 29.74S DANBURY CLOUDY 50 41 71 NE15G21 29.73F WTRBRY/OXFORD CLOUDY 46 39 76 NE14G20 29.73S BRIDGEPORT CLOUDY 51 42 71 NE15 29.71F MERIDEN CLOUDY 51 41 68 N10G18 29.72F NEW HAVEN CLOUDY 51 42 71 N15 29.71F CHESTER CLOUDY 48 43 81 NE13G21 29.70F GROTON CLOUDY 50 48 93 NE21G28 29.68F WILLIMANTIC CLOUDY 50 41 71 NE16G23 29.72F IN RI CITY SKY/WX TMP DP RH WIND PRES REMARKS PROVIDENCE CLOUDY 47 42 83 NE21G28 29.74R BLOCK ISLAND CLOUDY 47 43 86 NE21G28 29.69S WESTERLY CLOUDY 50 41 71 NE10G20 29.69F IN MA CITY SKY/WX TMP DP RH WIND PRES REMARKS BOSTON CLOUDY 46 42 86 NE17 29.79R WORCESTER CLOUDY 43 41 93 NE12G24 29.75S WESTFIELD CLOUDY 49 42 77 N12 29.75F PROVINCETOWN CLOUDY 45 43 93 NE21G30 29.75R NANTUCKET HVY RAIN 46 45 96 N28G35 29.67R FOG $$ ANZ330-335-338-340-345-350-353-355-051600- COASTAL MARINE OBSERVATIONS STATION/POSITION TIME SKY/WX TEMP WIND PRES VSBY WAVE AIR SEA DIR/SP/G HT/PER (UTC) (F) (DEG/KT/KT) (MB) (MI) (FT/S) NY HARB ENTRANCE 1350 48 50 30/ 17/ 21 1004.9 4/ 7 20S FIRE ISLAND 1350 47 48 30/ 19/ 23 1004.4 6/ 7 GREAT SOUTH BAY 1400 48 53 10/ 16/ 19 N/A 23 SSW MONTAUK P 1350 46 46 40/ 23/ 29 1003.9 6/ 7 15 E BARNEGAT LI 1422 50 N/A 7/ 7 HUDSON CANYON 1350 47 49 1001.9 7/ 7 KINGS POINT 1400 49 53 1005.8 EXECUTION ROCKS NOT AVBL CENTRAL LI SOUND 1330 47 50/ 16/ 19 N/A 2/ 3 EASTERN LI SOUND 1400 48 48 30/ 16/ 21 N/A ROBBINS REEF 1406 49 20/ 13/ 15 1005.0 $$ >>>>>>>>>>>>>>>>>>>>>>>>>>>> KEY <<<<<<<<<<<<<<<<<<<<<<<<<<< > < > SKY/WX - SKY CONDITION/PRESENT WEATHER < > TMP - TEMPERATURE IN FAHRENHEIT < > DP - DEWPOINT IN FAHRENHEIT < > RH - RELATIVE HUMIDITY IN PERCENT < > WIND - DIRECTION AND SPEED IN MPH < > PRES - MEAN SEA LEVEL PRESSURE IN INCHES OF HG < > WCI - WIND CHILL INDEX < > VSB - VISIBILITY IN MILES < > HX - HEAT INDEX < > TC - TEMPERATURE IN CELSIUS < > VRB - VARIABLE WIND DIRECTION < > < >>>>>>>>>>>>>>>>>>>>>>>>>>>> KEY <<<<<<<<<<<<<<<<<<<<<<<<<<<

USA.gov is the U.S. government's official web portal to all federal, state and local government web resources and services.